Location: Palo Alto
(37.4420°N, 122.1420°W)
Time: 16:41:43
(UTC-07:00)

Daily predictions for brighter satellites

Satellite Brightness Start Highest point End
(mag) Time Altitude Azimuth Time Altitude Azimuth Time Altitude Azimuth
H-2A R/B 4.1 19:36:20 10° WSW 19:41:25 49° S 20:16:55 10° ESE
USA 234 4.1 20:08:52 10° E 20:14:49 38° NNE 20:20:46 10° NNW
Cosmos 2360 4.4 20:11:29 10° S 20:16:58 50° ESE 20:22:29 10° NNE
BREEZE-M DEB (TANK) 4.0 20:15:31 10° W 20:18:04 37° NNW 20:22:53 10° ENE
ATLAS CENTAUR R/B 1.6 20:17:29 10° NW 20:19:55 86° NE 20:25:43 10° SE
Molniya-1 3.3 20:23:55 10° S 20:25:17 23° ESE 20:26:52 10° ENE
Cosmos 1455 2.4 20:22:17 10° SSE 20:25:58 48° E 20:29:38 10° NNE
Cosmos 1869 4.2 20:27:12 10° SSE 20:30:36 29° E 20:34:02 10° NNE
Meteor 1-27 4.4 20:26:00 10° SSW 20:31:36 77° W 20:37:12 10° N
OTV 4 1.3 20:29:07 10° W 20:31:48 36° SSW 20:34:14 12° SE
SJ-6B 4.3 20:30:33 10° SSW 20:34:13 39° W 20:37:59 10° NNW
Cosmos 1400 Rocket 2.8 20:35:36 10° N 20:39:30 83° W 20:43:25 10° S
Cosmos 1697 Rocket 4.1 20:39:08 10° SW 20:44:30 44° WNW 20:49:53 10° N
Cosmos 1892 2.8 20:41:09 10° N 20:44:56 77° W 20:48:44 10° S
USA 186 1.3 20:42:33 10° SSE 20:45:03 60° ENE 20:47:49 10° N
CENTAUR R/B 3.9 20:39:29 10° WSW 20:45:12 43° NW 20:51:40 10° NNE
Milstar 3 3.5 20:37:48 10° WSW 20:45:47 42° S 20:50:56 15° ESE
Gblst 52 Del rocket 4.2 20:42:15 10° NW 20:48:08 84° SW 20:52:45 15° SE
ALOS 3.9 20:43:54 10° SSW 20:48:11 36° W 20:52:29 10° NNW
Cosmos 2026 Rocket 4.5 20:43:23 10° N 20:49:14 41° ENE 20:54:29 12° SE
H-2A R/B 3.9 20:46:42 10° S 20:50:29 46° W 20:54:15 10° NNW
Cosmos 1315 Rocket 2.8 20:47:56 10° N 20:52:01 69° E 20:56:01 10° SSE
Abrixas rocket 3.7 20:49:54 10° W 20:52:59 38° NNW 20:56:06 10° NE
Cosmos 2297 Rocket 4.2 20:49:44 10° NW 20:54:22 27° WSW 20:58:59 10° SSW
DELTA 2 R/B (1) 3.7 20:49:53 10° WNW 20:55:28 68° SSW 20:59:32 19° ESE
YAOGAN 6 4.2 20:54:40 17° E 20:55:40 19° ENE 20:58:18 10° NNE
Nadezhda 4 Rocket 4.5 20:54:00 10° NNW 21:00:12 65° W 21:06:25 10° S
CZ-3B DEB 2.3 20:56:46 10° WNW 21:00:25 29° WSW 21:02:12 14° S
Cosmos 1707 Rocket 3.8 20:55:59 10° SSW 21:00:26 75° W 21:04:53 10° N
Cosmos 1354 Rocket 4.5 20:58:31 10° N 21:03:33 43° ENE 21:06:35 22° SE
Cosmos 2263 Rocket 3.4 20:59:00 10° N 21:03:33 25° ENE 21:06:05 18° E
Cosmos 1634 Rocket 4.0 20:58:45 10° S 21:05:01 83° E 21:11:23 10° N
Cosmos 2322 Rocket 2.2 20:59:41 10° S 21:05:08 56° ESE 21:10:37 10° NNE
Spot 2 Rocket 4.4 21:02:35 10° S 21:07:31 50° W 21:12:28 10° NNW
Cosmos 1092 Rocket 4.2 21:02:43 10° N 21:09:05 79° W 21:15:24 10° S
Meteor 1-29 2.8 21:05:43 10° NNE 21:09:13 76° ESE 21:12:38 10° S
Cosmos 1733 Rocket 3.8 21:05:51 10° N 21:09:58 36° ENE 21:11:35 27° ESE
Cosmos 1655 Rocket 4.3 21:05:17 10° N 21:11:30 51° E 21:15:50 20° SSE
Helios 1B rocket 2.5 21:08:14 10° N 21:12:21 80° WNW 21:16:26 10° SSW
Cosmos 1862 Rocket 4.0 21:11:07 23° SSE 21:13:25 40° E 21:17:37 10° NNE
Lacrosse 4 Rocket 2.2 21:10:29 10° N 21:14:31 37° ENE 21:16:01 28° E
Cosmos 2360 Rocket 3.1 21:15:52 25° ESE 21:16:21 25° ESE 21:20:52 10° NE
Cosmos 1825 2.2 21:13:04 10° N 21:16:50 57° E 21:18:16 33° SE
Cosmos 1980 Rocket 3.7 21:11:46 10° SW 21:17:04 40° WNW 21:22:26 10° N
GENESIS II 4.5 21:13:38 10° S 21:17:29 45° ESE 21:21:23 10° NE
Cosmos 1862 3.8 21:15:09 10° N 21:18:58 40° E 21:19:52 35° ESE
CZ-4B DEB 2.6 21:20:41 35° S 21:21:48 78° WSW 21:24:52 10° NNW
Meteor 2-20 Rocket 4.4 21:17:19 10° N 21:23:28 82° E 21:28:33 16° S
Cosmos 1939 Rocket 2.8 21:21:31 26° SSE 21:23:44 84° ENE 21:27:47 10° N
Envisat 3.1 21:23:11 16° S 21:27:20 78° WSW 21:32:27 10° NNW
Cosmos 2242 Rocket 3.7 21:22:55 10° S 21:27:27 81° W 21:31:58 10° N
SJ-11-01 4.3 21:28:22 21° S 21:31:26 79° WSW 21:36:07 10° NNW
SL-16 R/B 2.2 21:26:28 10° SSW 21:32:08 87° WNW 21:37:51 10° NNE
SPOT 5 3.8 21:34:04 28° E 21:34:36 29° ENE 21:38:42 10° N
Intercosmos 25 Rocket 3.7 21:36:50 17° SSW 21:39:01 50° W 21:42:31 10° N
Resurs 01 Rocket 4.3 21:40:45 10° SW 21:43:30 16° W 21:46:16 10° NW
Helios 1A 4.5 21:40:06 12° SSW 21:43:35 35° W 21:47:29 10° NNW
OAO 3 Rocket 3.2 21:39:03 10° WSW 21:43:56 66° S 21:44:57 51° ESE
ATLAS 5 CENTAUR R/B 3.4 21:40:06 10° NNW 21:45:30 34° NE 21:47:28 28° E
MINOTAUR IV R/B 4.5 21:41:09 10° NNW 21:45:46 81° ENE 21:46:42 56° SSE
MetOp-B 4.4 21:44:34 42° ESE 21:45:47 50° ENE 21:50:56 10° N
Cosmos 2279 Rocket 4.1 21:41:08 10° S 21:47:22 78° W 21:53:37 10° N
SEDSat Delta rocket 4.1 21:42:48 10° WSW 21:48:03 42° S 21:48:41 41° SSE
Meteor 1-26 Rocket 4.4 21:48:41 44° SE 21:49:51 52° E 21:55:25 10° NNE
SPOT 1/Viking Rocket 4.4 21:52:06 32° ENE 21:52:17 32° ENE 21:56:52 10° N
ARGOS 3.5 21:53:21 43° E 21:54:00 45° ENE 21:59:06 10° N
USA 234 3.4 21:54:42 35° SSE 21:57:32 65° SW 22:04:04 10° NW
Cosmos 1408 4.1 21:54:31 10° NNW 21:57:54 34° W 21:59:05 27° SW
Atlas Centaur 2 3.3 21:51:25 10° SW 21:58:22 42° SSE 21:59:34 40° SE
ERBS 3.2 21:56:34 10° NW 21:59:22 47° W 21:59:22 47° W
ERS-1 Rocket 3.0 22:02:11 47° S 22:03:36 73° WSW 22:08:38 10° NNW
Cosmos 1844 Rocket 4.4 22:03:23 10° N 22:07:12 19° NE 22:07:24 18° ENE
Sich 1 Rocket 3.7 22:04:57 10° N 22:08:57 65° NE 22:08:57 65° NE
MOS 1-B Rocket 3.9 22:16:43 62° ESE 22:17:31 69° ENE 22:23:11 10° N
SeaSat 1 2.4 22:19:46 75° NE 22:19:46 75° NE 22:24:36 10° NNW
H-2A R/B 4.0 22:21:27 20° NNE 22:21:27 20° NNE 22:23:19 10° NNE
USA 245 4.2 22:23:32 71° SSE 22:24:14 89° ENE 22:29:41 10° NNW
Meteor 1-14 Rocket 4.1 22:19:02 10° N 22:24:43 75° E 22:24:46 75° E
Cosmos 1908 Rocket 4.0 22:21:50 10° NNW 22:25:26 57° NW 22:25:26 57° NW
MetOp-A 4.5 22:31:03 54° SW 22:31:42 58° W 22:36:59 10° NNW
Okean 2 Rocket 4.4 22:36:18 10° N 22:38:59 34° NNE 22:38:59 34° NNE
USA 229 DEB 3.5 22:39:03 47° SSW 22:41:16 89° SE 22:48:14 10° NNE
USA 229 3.5 22:39:21 50° SSW 22:41:22 88° SE 22:48:20 10° NNE
Terra 3.2 22:44:38 30° NNE 22:44:38 30° NNE 22:47:21 10° N
Meteor 1-25 Rocket 4.3 22:38:09 10° N 22:43:00 66° NNE 22:43:00 66° NNE
H-2A R/B 2.5 22:45:19 55° N 22:45:19 55° N 22:49:12 10° N
COSMOS 2428 3.8 22:46:58 35° NE 22:46:58 35° NE 22:50:13 10° NNE
Cosmos 1867 3.8 22:39:21 10° NNW 22:44:01 63° N 22:44:01 63° N
Cosmos 2263 Rocket 3.0 22:42:23 10° NW 22:47:37 42° WSW 22:47:48 42° WSW
Lacrosse 4 Rocket 3.8 22:49:56 10° WNW 22:52:23 18° W 22:52:23 18° W
Cosmos 2360 Rocket 3.3 22:57:26 26° WSW 23:00:04 41° WNW 23:05:24 10° N
Cosmos 2333 Rocket 4.0 23:28:48 23° NNE 23:28:48 23° NNE 23:30:54 10° NNE
CZ-4C R/B 3.8 23:23:19 10° NNW 23:29:47 35° NE 23:30:05 35° NE
ATLAS 5 CENTAUR R/B 3.4 23:24:32 10° NW 23:29:01 40° W 23:29:01 40° W
Cosmos 2237 Rocket 4.3 23:38:24 19° NE 23:38:24 19° NE 23:39:55 10° NNE
Cosmos 2278 Rocket 3.7 23:34:44 10° N 23:37:59 30° NNE 23:37:59 30° NNE
Cosmos 1844 Rocket 4.2 23:46:02 10° NNW 23:49:04 32° NW 23:49:04 32° NW
